Tracking 31027 objects as of 19-Jul-2025
HD Live streaming from Space Station
objects crossing your sky now

COSMOS 1275 DEB

Track COSMOS 1275 DEB now!
10-day predictions


NORAD ID: 12766
Int'l Code: 1981-053DK
Perigee: 932.8 km
Apogee: 1,080.9 km
Inclination: 82.9 °
Period: 105.1 minutes
Semi major axis: 7377 km
RCS: 0.051 m2 (small)
Launch date: June 4, 1981
Source: Commonwealth of Independent States (former USSR) (CIS)
Launch site: PLESETSK MISSILE AND SPACE COMPLEX (PKMTR)

Note: This is SATELLITE DEBRIS
Your satellite tracking list
RESURS O1 DEB
Track 1 satellite(s)




NASA's NSSDC Master Catalog

Two Line Element Set (TLE):
1 12766U 81053DK  25199.88643451  .00000593  00000-0  63539-3 0  9990
2 12766  82.9492   3.2538 0100375 123.4682  29.7472 13.69963887186478
Source of the keplerian elements: AFSPC